Regional Weather Roundup
Issued by NWS

Home | Current Version | Previous Version | Graphics & Text | Print | Product List | Glossary On
Versions: 1 2 3 4 5 6 7 8 9 10 11 12 13 14 15 16 17 18 19 20 21 22 23 24 25 26 27 28 29 30 31 32 33 34 35 36 37 38 39 40 41 42 43 44 45 46 47 48 49 50
000
ASUS45 KABQ 291101
RWRNM
NEW MEXICO REGIONAL WEATHER ROUNDUP
NATIONAL WEATHER SERVICE ALBUQUERQUE NM
500 AM MDT FRI JUL 29 2016

NOTE: "FAIR" MEANS FEW OR NO CLOUDS BELOW 12,000 FEET AGL WITH NO
       SIGNIFICANT WEATHER OR OBSTRUCTIONS TO VISION.

      THIS PRODUCT IS RELEASED AS TWO VERSIONS.  ONE VERSION NEAR
      THE TOP OF THE HOUR CONTAINING PRELIMINARY DATA FROM ALBUQUERQUE
      AND OTHER STATIONS.  A FINAL VERSION WITH ADDITIONAL DATA IS
      ISSUED ABOUT 10 MINUTES AFTER THE HOUR.

NMZ501-503-504-510>518-291200-
NORTHWEST PLATEAU/NORTHCENTRAL MOUNTAINS

CITY           SKY/WX    TMP DP  RH WIND       PRES   REMARKS
FARMINGTON     FAIR      71  38  29 E7        30.11R
LOS ALAMOS     MOCLDY    67  43  42 S8        30.31S
SANTA FE       NOT AVBL
TAOS           FAIR      61  36  39 E9        30.31F
ANGEL FIRE     FAIR      43  40  88 CALM      30.43S

$$
NMZ402-403-502-505>509-291200-
WESTCENTRAL MOUNTAINS/SOUTHWEST MOUNTAINS

CITY           SKY/WX    TMP DP  RH WIND       PRES   REMARKS
GALLUP         FAIR      62  40  44 CALM      30.22S
GRANTS         FAIR      55  39  54 NW3       30.27R
SILVER CITY    FAIR      67  55  65 NE6       30.20S

$$
NMZ407-409-411-412-291200-
SOUTHERN DESERTS

CITY           SKY/WX    TMP DP  RH WIND       PRES   REMARKS
LORDSBURG      FAIR      72  50  46 S8        30.08S
DEMING         FAIR      75  52  44 NE8       30.10S
LAS CRUCES     FAIR      73  52  47 E6        30.12S
HOLLOMAN AFB   FAIR      76  56  48 S6        30.08S
ALAMOGORDO     FAIR      75  54  46 S8        30.11R
T OR C         FAIR      75  53  46 SW3       30.14F

$$
NMZ519>523-291200-
CENTRAL VALLEYS/CENTRAL HIGHLANDS

CITY           SKY/WX    TMP DP  RH WIND       PRES   REMARKS
ALBUQUERQUE    FAIR      74  46  36 E8        30.17S
DOUBLE EAGLE   FAIR      65  45  47 CALM      30.21R
MORIARTY ARPT  FAIR      56  50  81 CALM      30.26R
CLINES CORNERS FAIR      62  47  57 W12       30.31R
BELEN          FAIR      73  44  35 S3        30.17R
SOCORRO        FAIR      70  49  47 S7        30.15R

$$
NMZ524>526-539-540-291200-
SOUTHCENTRAL MOUNTAINS

CITY           SKY/WX    TMP DP  RH WIND       PRES   REMARKS
RUIDOSO          N/A     64  52  63 NW3       30.31S

$$
NMZ527>531-291200-
NORTHEAST HIGHLANDS/NORTHEAST PLAINS

CITY           SKY/WX    TMP DP  RH WIND       PRES   REMARKS
LAS VEGAS      FAIR      57  45  64 E7        30.32R
RATON          FAIR      59  50  72 N7        30.27S
CLAYTON        FAIR      61  57  87 SW7       30.20S

$$
NMZ532>537-291200-
EASTCENTRAL PLAINS

CITY           SKY/WX    TMP DP  RH WIND       PRES   REMARKS
TUCUMCARI      MOCLDY    73  58  59 NE20G25   30.15R
CANNON AFB     MOCLDY    68  61  78 W3        30.13S
CLOVIS AIRPORT FAIR      66  55  68 W5        30.13S

$$
NMZ028-029-538-291200-
SOUTHEAST PLAINS

CITY           SKY/WX    TMP DP  RH WIND       PRES   REMARKS
ROSWELL        FAIR      69  56  62 S6        30.07S
ARTESIA        FAIR      70  59  68 S5        30.08R
CARLSBAD       FAIR      69  62  78 S3        30.05S
HOBBS          FAIR      68  68 100 SW6       30.09F


$$



USA.gov is the U.S. government's official web portal to all federal, state and local government web resources and services.